GEFSGL_500_meanwind_144.txt.gz
Wind_Speed
14 13 13 12 11 10 10 9 9 8 8 9 11 13 13 13 14 13 14 14 15 16 17 17 17 18 18 19 19 20 20 20 21 22 23 23 24 25 26 26 27 27 27
15 14 14 13 11 10 10 10 9 9 9 10 11 12 13 14 14 15 15 15 16 17 18 18 19 19 19 20 20 20 21 21 22 23 24 24 25 26 26 27 28 28 29
15 15 14 14 12 11 11 10 10 11 11 11 12 13 13 14 15 16 16 16 17 18 19 19 20 20 20 21 21 22 22 23 23 24 25 26 27 27 27 29 29 29 30
16 16 15 14 13 12 12 11 12 12 12 13 13 14 15 16 17 17 17 18 19 19 20 21 21 21 21 22 23 23 24 24 25 26 27 27 28 28 29 29 29 29 29
17 17 16 15 14 14 14 13 14 14 14 14 14 15 16 17 17 18 19 20 20 21 21 21 21 22 23 24 24 24 24 25 26 27 28 29 29 29 29 29 29 29 29
18 18 18 17 16 16 16 15 16 15 15 15 15 17 18 18 18 20 20 20 20 21 22 22 23 23 24 25 25 25 26 27 27 28 28 29 30 29 29 29 29 30 30
19 19 19 18 18 18 17 17 17 17 17 17 18 18 18 18 19 20 20 20 21 21 22 23 24 25 25 26 26 27 27 27 28 29 29 29 29 29 29 30 31 31 32
21 20 20 20 20 19 19 19 19 19 19 19 19 19 20 20 20 21 21 22 22 23 24 24 25 26 27 27 27 28 28 28 28 30 30 30 29 30 30 31 31 32 32
22 22 22 22 22 22 21 21 20 20 20 20 20 21 21 22 22 23 23 24 24 24 25 26 27 27 28 28 28 29 29 30 31 30 30 30 30 30 31 32 32 33 33
24 24 24 24 24 24 23 22 22 21 21 21 22 22 23 24 24 25 25 25 26 26 26 27 27 28 28 29 30 30 31 31 31 30 30 30 30 31 31 32 33 33 34
26 26 26 26 26 26 25 25 24 23 23 24 24 24 24 24 25 26 26 27 27 27 28 28 29 29 29 30 31 31 32 32 32 32 33 32 32 32 33 33 33 33 33
29 29 29 29 28 28 27 26 26 26 26 26 26 26 25 25 26 26 27 27 28 29 29 29 30 31 31 32 33 33 33 33 33 33 33 33 33 33 34 34 34 34 34
31 31 31 31 31 30 29 29 29 29 28 28 28 28 28 27 28 28 29 29 30 31 31 31 32 32 32 32 33 33 33 34 34 34 34 33 34 34 34 34 34 34 35
33 33 32 32 32 31 31 31 31 31 31 30 30 31 31 30 30 31 31 32 32 32 33 33 33 33 33 32 33 33 34 34 34 34 34 34 34 34 34 34 34 35 34
34 33 33 33 33 33 33 33 33 33 33 33 33 34 33 33 33 33 34 34 34 34 34 34 34 34 34 34 35 35 35 35 35 35 34 34 34 34 34 35 35 34 34
36 35 34 34 34 34 34 34 34 34 35 35 35 35 35 35 35 36 36 36 36 36 36 36 36 36 36 36 36 37 36 36 35 35 35 34 35 35 34 34 34 34 34
36 36 35 35 35 35 35 35 35 35 36 36 35 36 36 37 37 37 37 37 37 38 38 38 38 38 38 38 37 37 37 36 35 35 35 34 34 33 34 34 34 34 34
37 37 37 37 37 37 37 36 36 36 37 37 37 38 38 38 39 39 39 39 39 39 39 39 39 39 38 38 37 37 36 35 35 34 33 33 33 34 34 34 34 34 33
38 38 37 37 37 38 38 38 38 38 38 38 38 39 39 39 39 39 39 39 40 40 40 39 39 38 38 37 37 36 35 35 34 33 33 33 33 34 34 34 35 34 33
39 39 39 38 39 39 39 39 39 39 39 39 39 40 40 40 39 39 39 39 39 39 39 38 37 36 36 36 35 35 34 32 32 32 32 33 34 34 34 33 33 33 33
39 39 39 39 39 39 39 39 39 39 40 40 40 40 40 39 39 39 38 38 38 37 36 36 35 35 34 34 33 32 32 31 32 32 33 33 34 34 34 33 33 33 32
39 39 39 39 39 39 40 40 40 40 40 40 40 39 39 39 38 38 37 36 36 36 36 35 34 33 33 32 32 32 32 32 32 33 33 33 33 33 33 33 33 33 32
39 39 39 39 40 40 39 39 40 40 39 39 39 38 37 37 37 36 36 36 36 35 34 33 33 32 32 32 32 32 33 33 32 31 32 32 32 32 31 31 31 31 31
38 38 38 38 38 38 38 38 38 37 37 36 37 36 36 36 36 35 36 36 35 34 33 33 33 33 33 33 33 33 33 33 32 31 32 32 31 31 31 31 31 30 30
36 36 36 37 37 37 36 36 36 36 36 36 36 36 36 35 35 35 35 34 33 32 32 32 32 33 33 33 33 33 32 32 32 32 31 31 31 30 30 30 30 29 29
35 35 36 36 36 36 35 35 35 34 34 34 34 34 34 34 34 34 33 33 32 32 32 32 33 34 34 34 33 32 31 31 31 30 30 30 30 30 30 30 30 30 30

GEFSGL_500_meanwind_150.txt.gz
Wind_Speed
13 12 12 11 9 9 9 7 6 7 7 8 9 11 12 13 14 14 15 15 15 16 17 17 17 17 17 18 18 18 19 19 18 20 21 22 22 23 23 23 24 24 25
13 13 12 11 10 9 9 8 7 8 8 9 9 11 12 13 14 15 15 16 16 17 17 18 19 19 19 19 20 20 20 20 20 20 21 22 23 23 24 24 24 25 26
14 14 13 12 11 11 10 9 9 9 10 10 11 11 12 13 13 15 17 18 18 18 18 18 19 19 20 20 21 21 21 22 22 21 22 23 25 25 25 25 25 26 26
15 14 14 14 13 13 12 11 10 11 12 12 12 13 13 14 15 16 17 17 18 19 19 19 20 20 20 21 21 22 22 22 23 23 23 24 25 26 26 26 27 27 28
15 15 15 15 14 14 14 13 13 13 13 13 13 13 14 15 15 16 17 18 18 19 20 21 21 21 21 21 21 22 23 23 24 25 25 25 26 26 27 28 28 29 29
17 16 16 15 15 15 15 15 14 13 14 14 15 14 15 15 16 17 18 17 18 19 21 22 22 22 22 22 22 23 23 24 25 26 26 26 27 27 28 29 29 30 29
18 18 17 17 17 17 16 16 16 15 15 15 15 15 15 16 17 18 18 19 19 19 20 21 22 22 22 23 23 24 24 25 26 27 27 28 28 28 29 29 30 30 30
19 19 19 19 18 18 18 18 17 17 17 17 17 17 17 17 18 18 19 20 20 20 20 21 22 22 23 24 25 25 25 26 27 28 28 28 28 29 29 30 31 32 31
21 22 21 21 21 20 20 20 20 19 19 19 18 18 19 19 19 19 19 20 21 22 22 23 23 24 24 25 26 26 27 28 29 29 29 29 30 30 30 31 32 32 32
24 24 24 24 24 23 22 22 21 21 21 21 21 21 20 20 20 21 21 22 22 23 23 24 24 24 25 27 28 28 29 29 29 30 30 31 31 32 33 33 33 33 33
26 26 26 26 25 24 24 24 24 24 23 24 24 24 23 23 23 23 23 24 24 25 25 25 26 26 27 28 28 29 30 30 30 30 31 31 32 33 34 34 34 34 34
29 29 28 28 27 27 26 26 26 26 26 26 26 26 26 25 25 25 26 26 26 26 26 27 27 28 28 28 29 30 30 31 31 31 32 32 33 33 34 34 35 34 34
32 31 30 30 30 30 29 29 29 29 28 28 28 28 28 28 28 28 28 29 29 29 29 29 29 29 30 30 31 32 32 32 32 32 33 33 34 34 34 34 35 35 35
33 33 32 32 32 32 32 32 32 32 31 30 30 29 29 29 29 30 30 31 31 31 31 32 32 32 32 32 33 33 33 33 34 34 34 34 35 35 34 34 35 35 35
35 34 34 34 34 34 34 34 34 34 33 32 31 31 31 31 31 31 32 32 32 32 33 33 33 34 34 34 34 34 35 34 34 34 34 34 35 34 35 35 35 34 35
36 36 36 35 36 36 35 35 35 35 34 33 32 32 33 33 33 33 33 33 33 33 34 35 35 35 35 35 35 36 36 35 34 34 35 35 35 35 35 35 34 34 34
38 37 37 37 38 38 37 37 36 36 35 35 34 35 35 35 35 35 35 35 35 35 35 36 36 36 37 36 36 36 36 36 36 36 36 36 36 36 35 35 34 34 34
38 37 38 38 39 39 38 38 37 36 36 35 35 36 36 36 36 36 36 36 36 36 37 37 36 37 37 37 36 36 36 36 36 35 35 36 36 35 34 33 33 33 33
39 39 39 39 39 39 39 39 38 37 36 36 36 36 36 36 36 37 37 37 37 37 37 37 36 36 36 36 36 36 36 36 35 35 35 34 34 33 32 32 33 33 33
39 39 39 39 39 39 39 38 38 37 37 37 37 37 37 36 36 36 36 36 36 36 36 36 36 35 35 35 35 36 36 35 34 34 34 33 33 32 32 33 33 33 33
39 39 39 39 38 38 38 38 38 38 38 38 38 38 37 36 36 36 36 36 35 35 35 35 35 35 35 35 35 35 35 34 34 34 33 33 33 34 34 33 33 33 33
39 39 39 39 38 38 38 38 38 38 38 38 38 38 37 37 36 36 36 36 36 36 35 35 36 36 35 35 34 34 34 34 33 33 33 33 33 34 33 33 33 32 32
39 38 38 37 37 37 36 36 36 37 37 38 38 37 37 37 36 36 36 36 36 35 35 35 35 35 35 34 34 34 34 34 34 34 33 33 33 33 32 32 31 31 31
38 37 36 36 36 36 36 36 36 36 36 37 36 36 36 35 35 36 36 36 35 35 35 35 34 34 34 34 34 34 34 34 34 34 34 34 33 33 32 32 31 31 31
35 35 35 35 35 35 35 35 35 35 35 35 35 35 35 34 34 34 34 34 34 34 34 33 33 33 33 33 32 32 32 32 32 33 33 32 32 32 31 31 31 31 31
33 33 33 33 33 33 33 33 33 34 34 34 34 34 34 34 33 33 33 33 33 33 33 32 32 32 31 31 31 30 30 31 31 31 31 31 31 31 30 31 31 31 31

GEFSGL_500_meanwind_156.txt.gz
Wind_Speed
13 13 13 13 13 12 11 10 10 9 9 10 10 11 12 12 13 14 15 16 17 18 19 19 20 20 21 21 21 22 22 22 23 23 25 25 25 25 27 26 26 26 27
14 14 14 14 13 13 12 11 11 11 11 11 11 12 12 13 14 15 16 17 18 19 20 20 21 22 22 22 22 23 24 24 24 25 26 26 27 28 28 28 27 27 28
14 14 14 15 15 14 13 13 13 12 12 11 11 11 12 13 14 16 16 17 18 19 20 21 22 22 23 23 24 24 25 25 25 25 26 27 27 28 28 28 28 28 28
15 16 16 16 16 16 16 15 14 14 14 13 13 12 13 14 15 16 16 17 19 19 20 21 21 22 23 23 24 25 26 26 26 26 27 27 27 28 28 28 29 29 29
16 17 17 17 17 18 17 17 16 16 16 16 16 15 16 16 16 17 17 18 19 20 20 21 22 22 23 23 24 24 26 26 27 28 28 27 28 29 29 29 29 29 30
17 17 18 18 18 18 18 18 19 18 17 17 17 18 18 18 18 18 19 19 20 21 22 22 23 24 24 25 25 26 27 27 28 28 28 29 29 30 30 30 31 31 31
18 18 19 19 19 20 20 20 20 20 19 18 19 19 19 19 19 20 20 21 22 22 22 22 23 23 25 26 26 27 27 28 29 28 29 30 30 30 31 32 32 33 33
21 21 21 21 21 21 21 21 21 20 19 19 19 19 19 19 19 20 21 21 22 22 23 24 24 24 25 26 27 28 29 29 30 30 30 31 31 31 32 33 33 33 34
23 23 23 23 24 23 22 23 22 21 21 21 21 20 20 20 20 21 22 22 23 24 25 26 26 27 27 28 28 28 29 30 31 32 32 32 33 33 33 34 33 34 34
25 25 25 25 25 25 25 25 25 24 23 23 23 23 22 22 23 23 23 24 25 26 26 27 27 28 28 29 29 29 30 31 32 32 32 33 33 33 33 34 34 35 35
27 28 28 28 28 27 27 27 27 26 25 25 25 25 25 25 25 25 25 25 26 27 27 28 29 29 29 30 31 31 31 32 33 33 33 33 33 34 34 35 35 35 36
30 31 30 31 31 31 30 29 28 28 27 27 27 27 27 27 27 27 27 27 27 28 28 28 29 30 30 31 32 33 33 33 34 34 34 34 34 35 36 36 36 36 36
34 34 34 34 34 34 33 32 29 28 29 29 29 29 29 29 30 30 30 30 30 30 30 31 31 32 32 33 33 34 34 34 35 35 35 35 36 36 37 37 37 37 37
37 37 37 36 35 35 35 33 31 30 31 31 31 31 31 32 32 32 32 32 32 32 32 32 33 33 33 34 34 35 35 36 36 37 37 37 37 37 37 37 37 37 38
40 39 38 37 36 35 34 33 32 32 33 33 32 33 33 34 34 35 35 34 34 34 34 34 34 34 35 36 36 37 37 37 37 38 38 38 38 38 38 38 38 38 38
41 40 39 38 37 36 34 34 34 34 35 35 35 36 36 36 36 35 36 36 35 35 35 36 36 36 36 37 37 38 38 38 38 38 38 37 38 38 38 38 38 38 38
41 39 39 38 37 36 34 35 35 35 36 37 37 38 38 38 37 37 37 37 36 36 36 36 36 36 36 36 36 36 37 37 37 38 38 38 38 38 38 39 39 38 38
41 39 39 37 36 35 35 35 36 36 37 38 38 38 38 38 38 38 38 37 36 36 36 37 37 37 37 36 36 36 37 37 37 38 38 38 38 38 38 38 38 38 38
41 40 39 38 37 38 37 37 37 38 38 39 39 39 39 39 39 38 38 37 36 36 36 36 37 37 37 37 37 37 37 38 38 38 38 38 38 38 37 37 37 37 37
39 39 38 38 37 38 38 38 38 38 38 39 39 39 39 39 39 38 38 37 36 36 37 37 37 37 37 37 37 37 37 37 38 38 38 38 38 38 37 36 36 36 37
38 38 38 38 39 38 38 39 39 39 39 38 38 38 38 38 38 38 38 37 38 38 38 38 38 38 38 38 38 37 37 38 38 38 37 37 37 37 37 37 37 36 36
39 38 38 39 38 39 39 39 39 39 39 39 38 38 38 38 37 38 38 38 38 39 38 38 38 38 38 38 37 37 38 38 38 37 37 37 37 37 37 37 36 36 36
38 37 37 37 38 38 38 38 38 38 38 38 38 37 37 37 38 38 38 38 38 38 38 38 38 38 37 37 37 37 37 37 37 37 37 36 36 36 36 35 35 35 34
36 36 37 37 37 37 37 37 37 38 38 37 37 37 37 37 38 37 37 37 37 37 38 38 38 38 38 37 37 37 37 36 36 36 35 35 34 34 34 33 33 32 32
35 35 35 35 35 35 36 36 37 37 36 36 36 36 36 36 37 37 37 37 37 37 37 37 36 36 36 36 36 36 35 35 34 34 33 33 32 32 32 32 32 32 31
32 32 33 33 33 34 35 35 34 34 34 34 34 34 34 35 36 36 36 36 36 36 36 35 35 35 35 35 34 34 34 34 33 33 32 32 32 32 32 32 32 32 32

GEFSGL_500_meanwind_162.txt.gz
Wind_Speed
12 12 12 11 10 10 11 11 11 11 11 11 11 12 12 13 13 14 14 14 15 16 17 18 19 19 20 21 21 22 22 22 22 23 24 25 25 25 25 25 25 25 26
12 12 12 12 12 12 12 12 12 12 12 12 12 13 14 14 15 15 15 16 17 17 18 18 19 20 21 21 22 23 23 24 24 24 25 26 26 26 26 26 26 26 26
12 13 13 13 13 14 14 14 14 13 13 14 14 14 14 15 15 16 16 17 17 18 19 19 20 21 22 22 22 23 24 25 26 26 26 26 27 26 27 27 27 28 27
13 14 14 14 15 15 15 16 15 15 15 15 16 15 16 16 17 17 18 17 18 19 20 21 21 21 22 23 23 23 24 25 26 27 27 28 28 28 28 29 29 29 29
15 15 16 16 16 16 17 17 17 17 17 17 17 17 17 17 18 18 18 19 19 20 21 22 22 22 23 23 24 25 25 26 26 27 27 27 28 28 29 29 30 30 29
17 18 18 18 18 18 19 19 19 19 19 18 18 19 18 19 19 18 19 20 21 21 22 23 23 24 24 24 25 26 27 27 27 27 27 27 28 29 30 30 30 30 29
19 19 19 20 20 20 20 20 20 20 20 20 20 20 20 20 20 20 20 21 21 22 24 24 24 24 24 25 26 27 27 27 27 27 28 28 28 29 30 30 30 30 30
21 21 22 22 22 22 22 23 23 22 22 22 21 21 22 22 21 21 21 21 22 22 23 23 24 24 25 26 26 26 27 27 27 28 29 29 30 31 31 32 31 31 32
23 24 24 25 25 25 25 25 25 25 25 24 24 23 23 23 23 23 23 23 23 23 23 24 24 25 25 26 26 26 26 27 28 28 29 30 31 31 31 31 31 32 32
26 27 27 28 27 27 28 27 27 27 27 27 26 26 25 24 25 26 25 25 24 24 24 24 25 25 26 26 27 27 28 28 29 30 31 32 32 32 32 32 33 33 33
30 30 30 29 29 30 30 30 30 30 30 30 29 28 27 26 26 27 27 26 26 25 26 27 27 28 28 28 28 29 29 30 31 32 32 33 33 34 34 34 34 34 34
33 34 34 33 33 33 34 33 33 32 31 31 30 29 29 28 28 27 28 28 28 28 28 29 29 30 30 30 30 31 31 32 33 33 34 34 34 34 34 35 35 35 36
36 37 37 37 37 37 36 35 34 33 33 32 31 30 30 30 29 30 29 29 30 30 30 30 31 31 31 32 32 32 33 33 34 35 35 35 35 35 36 36 36 36 37
40 40 39 38 39 39 37 35 34 34 34 33 33 32 31 31 31 31 32 32 32 32 32 32 32 33 33 34 34 34 34 34 35 35 35 35 35 35 36 36 36 37 37
41 41 41 41 40 40 39 37 36 35 35 35 34 33 32 32 33 33 34 33 33 34 34 34 34 35 35 35 35 35 35 35 35 34 35 35 35 36 36 36 37 37 37
42 42 42 41 41 40 39 39 38 37 36 35 34 33 33 32 33 34 34 34 35 35 36 36 36 36 35 35 36 36 35 35 35 36 36 36 36 36 37 37 37 37 37
42 42 41 41 40 39 39 39 39 38 37 36 35 34 34 34 34 35 35 36 36 37 37 37 37 36 36 36 36 36 36 36 36 37 37 37 37 37 37 37 38 38 38
41 42 42 41 39 39 39 39 38 37 36 35 35 35 35 36 35 35 35 36 36 36 37 36 37 37 37 37 37 37 37 37 37 37 38 38 38 38 37 37 38 38 38
41 42 41 40 39 39 39 38 37 37 36 36 36 36 36 36 36 36 36 36 36 36 36 36 37 37 37 37 37 37 37 38 38 38 38 38 38 38 38 38 38 38 37
40 41 40 40 41 40 39 39 38 38 37 38 38 38 38 38 38 38 37 37 37 38 38 38 37 37 37 37 38 38 38 39 38 38 38 38 38 38 38 37 37 37 37
41 41 41 41 41 39 39 39 39 39 39 39 39 39 38 39 39 39 39 39 39 39 39 38 38 37 38 38 38 38 39 39 39 38 38 37 38 38 37 37 37 37 36
40 40 39 39 39 39 39 39 39 39 39 39 40 40 39 39 39 38 38 39 38 38 38 38 38 37 37 37 38 38 38 38 38 39 38 38 38 37 37 37 36 36 36
37 37 36 36 37 37 38 38 38 38 38 39 39 39 38 38 38 38 38 38 38 38 38 38 37 37 38 38 38 37 38 38 38 38 37 37 37 37 37 37 36 35 34
35 35 35 35 36 36 37 37 37 37 37 37 37 37 37 37 37 37 37 37 38 38 38 38 37 37 37 37 38 38 38 38 37 37 37 37 36 36 36 36 35 35 34
34 34 34 34 35 35 35 35 35 35 35 35 36 37 37 36 36 36 36 36 36 37 37 37 37 38 38 37 37 38 37 36 35 36 36 36 35 35 35 35 35 34 33
33 33 33 34 34 34 34 33 33 34 34 35 35 36 36 36 36 36 36 36 36 37 37 37 37 37 37 37 37 37 36 36 36 36 36 35 35 35 35 35 35 34 34